"startDT [UTC]","vpos","CH4 [ppm]","stdev(CH4) [ppm]","CO2 [ppm]","stdev(CO2) [ppm]","H2O_reported [%]","stdev(H2O_reported)","CavityPressure [torr]","CavityTemp [C]","OutletValve","CH4_dry [ppm]","CO2_dry [ppm]","DasTemp [C]","EtalonTemp [C]","WarmBoxTemp [C]","MPVPosition","T_ECpre [C]","T_EC1 [C]","T_EC2 [C]","p_inlet [hPa]","p_in [hPa]","p_out [hPa]","T_inlet [C]","RH_inlet [%]","dwpt_inlet [C]","T_vent [C]","RH_vent [%]","dwpt_vent [C]","flow_vent [l min-1]","flow_inlet [l min-1]","dwpt_sample [C]","T_room [C]"
2015-08-19 00:00:00,0.0,1.93286,0.00187,381.142,0.616,1.6451,0.0021,139.999,45.000,30807.94956,1.96601,389.121,41.250,45.064,45.000,0.00,0.10,-272.72,-272.79,-8,450,-10,27.4,35.7,10.9,26.8,37.6,11.1,5.73,1.91,8.1,32.1
2015-08-19 00:01:00,0.0,1.92817,0.00220,380.332,0.069,1.6452,0.0022,139.997,45.000,30808.94340,1.96130,388.280,41.251,45.064,45.000,0.00,0.10,-272.72,-272.77,-7,450,-10,27.4,35.7,10.8,26.9,37.6,11.2,5.73,2.09,8.1,32.2
2015-08-19 00:02:00,0.0,1.92452,0.00137,380.323,0.115,1.6436,0.0020,139.999,45.000,30809.14093,1.95747,388.259,41.250,45.065,45.000,0.00,0.10,-272.71,-272.78,-8,450,-10,27.4,35.7,10.8,26.8,37.5,11.1,5.73,1.92,8.1,32.2
2015-08-19 00:03:00,0.0,1.92304,0.00087,380.608,0.210,1.6445,0.0026,140.000,45.000,30808.92841,1.95594,388.551,41.247,45.064,45.000,0.00,0.10,-272.72,-272.79,-9,450,-10,27.4,35.7,10.8,26.8,37.5,11.1,5.73,1.80,8.1,32.2
2015-08-19 00:04:00,0.0,1.91978,0.00082,379.881,0.258,1.6433,0.0024,140.002,45.000,30810.86365,1.95269,387.825,41.207,45.064,44.999,0.00,0.10,-272.72,-272.79,-8,450,-10,27.4,35.7,10.8,26.9,37.5,11.1,5.73,1.98,8.1,32.2
2015-08-19 00:05:00,0.0,1.92071,0.00063,380.133,0.208,1.6452,0.0019,139.997,45.000,30809.06279,1.95343,388.062,41.189,45.064,44.999,0.00,0.10,-272.72,-272.79,-8,450,-10,27.4,35.7,10.8,26.8,37.5,11.1,5.73,2.07,8.1,32.2
2015-08-19 00:06:00,0.0,1.92238,0.00049,380.500,0.167,1.6462,0.0024,140.000,45.000,30811.44953,1.95523,388.457,41.188,45.064,44.999,0.00,0.10,-272.72,-272.79,-8,450,-10,27.4,35.7,10.9,26.9,37.6,11.2,5.73,1.88,8.1,32.2
2015-08-19 00:07:00,0.0,1.92202,0.00060,381.428,1.101,1.6481,0.0023,139.995,44.999,30810.60128,1.95494,389.338,41.189,45.064,45.000,0.00,0.10,-272.72,-272.79,-8,450,-10,27.4,35.7,10.9,26.9,37.6,11.2,5.73,1.81,8.1,32.1
2015-08-19 00:08:00,0.0,1.94095,0.01056,382.008,0.670,1.6477,0.0024,139.997,45.000,30811.80201,1.97266,390.010,41.216,45.065,45.000,0.00,0.10,-272.72,-272.78,-9,450,-10,27.4,35.7,10.9,26.9,37.6,11.2,5.73,2.04,8.1,32.1
2015-08-19 00:09:00,0.0,1.94049,0.01385,381.499,1.233,1.6490,0.0022,140.000,45.000,30810.23828,1.97522,389.562,41.245,45.065,45.000,0.00,0.10,-272.72,-272.79,-8,450,-10,27.4,35.8,10.9,26.8,37.6,11.2,5.73,2.04,8.1,32.2
2015-08-19 00:10:00,0.0,1.92372,0.00119,379.836,0.148,1.6495,0.0025,139.995,45.000,30807.09252,1.95664,387.795,41.250,45.065,45.001,0.00,0.10,-272.72,-272.79,-8,450,-10,27.4,35.8,10.9,26.9,37.6,11.2,5.73,1.82,8.1,32.2
2015-08-19 00:11:00,0.0,1.92399,0.00174,380.018,0.185,1.6490,0.0016,139.998,45.000,30807.25860,1.95706,387.982,41.250,45.065,45.001,0.00,0.10,-272.72,-272.78,-8,450,-10,27.4,35.8,10.9,26.8,37.6,11.2,5.73,1.87,8.1,32.2
2015-08-19 00:12:00,0.0,1.92104,0.00105,379.614,0.162,1.6494,0.0021,140.001,45.000,30808.15377,1.95406,387.575,41.242,45.065,45.000,0.00,0.10,-272.72,-272.78,-9,450,-10,27.4,35.8,10.9,26.8,37.6,11.2,5.73,2.07,8.1,32.2
2015-08-19 00:13:00,0.0,1.92294,0.00254,379.784,0.302,1.6493,0.0015,139.996,45.000,30807.15066,1.95571,387.728,41.210,45.065,45.000,0.00,0.10,-272.72,-272.79,-9,450,-10,27.4,35.8,10.9,26.8,37.6,11.2,5.73,1.99,8.1,32.2
2015-08-19 00:14:00,0.0,1.92272,0.00170,379.746,0.290,1.6505,0.0018,140.000,45.000,30809.38061,1.95554,387.694,41.201,45.065,45.000,0.00,0.10,-272.72,-272.78,-8,450,-10,27.4,35.8,10.9,26.8,37.6,11.2,5.73,1.79,8.1,32.2
2015-08-19 00:15:00,0.0,1.92298,0.00179,379.795,0.328,1.6519,0.0020,139.997,45.000,30808.64902,1.95627,387.787,41.191,45.064,45.000,0.00,0.10,-272.72,-272.77,-8,450,-10,27.4,35.9,10.9,26.8,37.7,11.2,5.73,1.92,8.1,32.2
2015-08-19 00:16:00,0.0,1.92180,0.00096,379.598,0.219,1.6536,0.0031,140.003,45.000,30810.32344,1.95484,387.575,41.196,45.065,45.000,0.00,0.10,-272.72,-272.78,-8,450,-10,27.4,35.9,10.9,26.9,37.7,11.2,5.73,2.09,8.1,32.2
2015-08-19 00:17:00,0.0,1.92101,0.00064,379.556,0.151,1.6540,0.0018,140.001,45.000,30809.73902,1.95403,387.527,41.240,45.065,45.000,0.00,0.10,-272.72,-272.79,-9,450,-10,27.4,35.9,10.9,26.9,37.7,11.2,5.73,1.93,8.1,32.2
2015-08-19 00:18:00,0.0,1.92075,0.00033,379.594,0.100,1.6531,0.0021,140.001,45.000,30809.54704,1.95377,387.561,41.249,45.065,45.000,0.00,0.10,-272.71,-272.79,-9,450,-10,27.4,35.9,10.9,26.8,37.7,11.2,5.73,1.80,8.1,32.2
2015-08-19 00:19:00,0.0,1.92027,0.00070,379.577,0.114,1.6538,0.0013,139.998,45.000,30807.37012,1.95331,387.563,41.248,45.065,45.000,0.00,0.10,-272.72,-272.79,-8,450,-10,27.4,35.9,10.9,26.8,37.7,11.2,5.73,1.98,8.1,32.2
2015-08-19 00:20:00,0.0,1.92005,0.00051,379.472,0.094,1.6503,0.0023,139.999,45.000,30808.37113,1.95298,387.428,41.231,45.065,45.000,0.00,0.10,-272.72,-272.79,-8,450,-10,27.4,35.8,10.9,26.8,37.7,11.2,5.73,2.07,8.1,32.2
2015-08-19 00:21:00,0.0,1.91971,0.00041,379.276,0.086,1.6488,0.0019,140.000,45.000,30807.99238,1.95260,387.218,41.195,45.064,44.999,0.00,0.10,-272.71,-272.79,-8,450,-10,27.4,35.8,10.9,26.9,37.6,11.2,5.73,1.88,8.1,32.2
2015-08-19 00:22:00,0.0,1.91984,0.00041,379.381,0.057,1.6494,0.0022,140.002,45.000,30810.00478,1.95276,387.331,41.186,45.064,44.999,0.00,0.10,-272.72,-272.78,-9,450,-10,27.4,35.8,10.9,26.8,37.6,11.2,5.73,1.82,8.1,32.1
2015-08-19 00:23:00,0.0,1.91878,0.00054,379.154,0.198,1.6491,0.0023,139.997,45.000,30809.41270,1.95167,387.104,41.143,45.064,44.999,0.00,0.10,-272.73,-272.79,-9,450,-10,27.4,35.8,10.9,26.8,37.6,11.2,5.73,2.01,8.1,32.1
2015-08-19 00:24:00,0.0,1.91803,0.00039,378.865,0.073,1.6484,0.0014,140.001,45.000,30811.82927,1.95094,386.805,41.126,45.064,44.999,0.00,0.10,-272.72,-272.79,-8,450,-10,27.4,35.7,10.9,26.9,37.6,11.2,5.73,2.06,8.1,32.2
2015-08-19 00:25:00,0.0,1.91711,0.00029,378.797,0.094,1.6476,0.0014,140.002,45.000,30812.60879,1.94998,386.726,41.127,45.064,45.000,0.00,0.10,-272.71,-272.79,-8,450,-10,27.4,35.7,10.9,26.8,37.5,11.1,5.73,1.85,8.1,32.2
2015-08-19 00:26:00,0.0,1.91707,0.00049,378.797,0.094,1.6463,0.0024,139.997,45.000,30812.64430,1.94988,386.714,41.136,45.065,45.000,0.00,0.10,-272.72,-272.78,-8,450,-10,27.4,35.7,10.8,26.9,37.5,11.1,5.73,1.83,8.1,32.2
2015-08-19 00:27:00,0.0,1.91675,0.00026,378.644,0.070,1.6478,0.0026,140.002,45.000,30814.63016,1.94955,386.569,41.127,45.065,45.000,0.00,0.10,-272.72,-272.78,-9,450,-10,27.4,35.7,10.9,26.9,37.6,11.1,5.73,2.03,8.1,32.2
2015-08-19 00:28:00,0.0,1.91746,0.00058,378.940,0.095,1.6471,0.0019,139.998,45.000,30814.90935,1.95026,386.866,41.124,45.065,45.000,0.00,0.10,-272.72,-272.78,-9,450,-10,27.3,35.7,10.8,26.8,37.5,11.1,5.73,2.04,8.1,32.2
2015-08-19 00:29:00,0.0,1.91742,0.00065,378.806,0.122,1.6456,0.0017,140.001,45.000,30816.83930,1.95017,386.719,41.105,45.064,44.999,0.00,0.10,-272.72,-272.79,-8,450,-10,27.3,35.7,10.8,26.8,37.5,11.1,5.73,1.83,8.1,32.1
2015-08-19 00:30:00,0.0,1.91781,0.00031,378.984,0.029,1.6447,0.0029,139.997,45.000,30814.07250,1.95057,386.901,41.072,45.065,45.000,0.00,0.10,-272.73,-272.79,-8,450,-10,27.4,35.7,10.8,26.8,37.5,11.1,5.73,1.85,8.1,32.1
2015-08-19 00:31:00,0.0,1.91755,0.00040,378.897,0.050,1.6455,0.0021,139.998,45.000,30813.52334,1.95035,386.817,41.063,45.065,45.000,0.00,0.10,-272.72,-272.79,-8,450,-10,27.3,35.7,10.8,26.8,37.5,11.1,5.73,2.05,8.1,32.1
2015-08-19 00:32:00,0.0,1.91730,0.00031,378.860,0.058,1.6450,0.0019,140.001,45.000,30813.08498,1.95009,386.776,41.066,45.065,45.000,0.00,0.10,-272.72,-272.79,-9,450,-10,27.4,35.7,10.8,26.8,37.5,11.1,5.73,2.02,8.1,32.1
2015-08-19 00:33:00,0.0,1.91757,0.00040,378.847,0.040,1.6436,0.0021,139.998,45.000,30813.76238,1.95028,386.758,41.087,45.065,45.000,0.00,0.10,-272.72,-272.79,-9,450,-10,27.3,35.7,10.8,26.8,37.5,11.1,5.73,1.82,8.1,32.1
2015-08-19 00:34:00,0.0,1.91706,0.00036,378.720,0.108,1.6442,0.0022,140.000,45.000,30812.40503,1.94979,386.625,41.120,45.066,45.001,0.00,0.10,-272.72,-272.79,-8,450,-10,27.4,35.7,10.8,26.8,37.5,11.1,5.73,1.87,8.1,32.2
2015-08-19 00:35:00,0.0,1.91756,0.00044,378.760,0.055,1.6433,0.0023,139.998,45.000,30812.84755,1.95029,386.666,41.112,45.065,45.001,0.00,0.10,-272.72,-272.78,-8,450,-10,27.4,35.6,10.8,26.8,37.4,11.1,5.73,2.07,8.1,32.2
2015-08-19 00:36:00,0.0,1.91762,0.00065,378.789,0.044,1.6415,0.0021,139.999,45.000,30811.84373,1.95034,386.684,41.071,45.065,45.000,0.00,0.10,-272.72,-272.79,-8,450,-10,27.3,35.6,10.8,26.8,37.4,11.1,5.73,1.99,8.1,32.1
2015-08-19 00:37:00,0.0,1.91707,0.00130,378.832,0.293,1.6407,0.0014,140.001,45.000,30813.17827,1.94950,386.691,41.065,45.065,45.000,0.00,0.10,-272.73,-272.79,-9,450,-10,27.3,35.6,10.8,26.8,37.4,11.1,5.73,1.81,8.1,32.2
2015-08-19 00:38:00,0.0,1.91833,0.00104,378.859,0.232,1.6403,0.0017,139.999,45.000,30811.55520,1.95106,386.782,41.059,45.065,44.999,0.00,0.10,-272.72,-272.78,-9,450,-10,27.3,35.6,10.8,26.8,37.4,11.1,5.73,1.90,8.1,32.1
2015-08-19 00:39:00,0.0,1.92525,0.00240,379.298,0.141,1.6403,0.0019,140.002,45.000,30813.23298,1.95791,387.190,41.019,45.064,44.999,0.00,0.10,-272.72,-272.78,-8,450,-10,27.3,35.6,10.8,26.8,37.4,11.1,5.73,2.07,8.1,32.1
2015-08-19 00:40:00,0.0,1.93107,0.00387,379.497,0.182,1.6390,0.0022,139.999,45.000,30814.05721,1.96341,387.372,40.999,45.064,45.000,0.00,0.10,-272.73,-272.79,-8,450,-10,27.3,35.5,10.7,26.8,37.3,11.0,5.73,1.99,8.1,32.1
2015-08-19 00:41:00,0.0,1.93044,0.00104,380.055,0.079,1.6397,0.0023,140.000,45.000,30813.03701,1.96334,387.959,40.979,45.064,44.999,0.00,0.10,-272.72,-272.79,-8,450,-10,27.4,35.6,10.8,26.9,37.3,11.1,5.73,1.81,8.1,32.1
2015-08-19 00:42:00,0.0,1.93053,0.00149,380.094,0.129,1.6448,0.0021,139.994,45.000,30811.84155,1.96354,388.036,40.955,45.064,45.000,0.00,0.10,-272.71,-272.78,-8,450,-10,27.4,35.7,10.8,26.9,37.4,11.1,5.73,1.87,8.1,32.1
2015-08-19 00:43:00,0.0,1.93246,0.00082,380.242,0.092,1.6439,0.0024,140.000,44.999,30815.90271,1.96537,388.173,40.941,45.064,44.999,0.00,0.10,-272.73,-272.79,-9,450,-10,27.4,35.6,10.8,26.9,37.4,11.1,5.73,2.05,8.2,32.1
2015-08-19 00:44:00,0.0,1.93436,0.00078,380.454,0.047,1.6378,0.0027,140.002,44.999,30817.17077,1.96713,388.365,40.926,45.065,45.000,0.00,0.10,-272.72,-272.79,-9,451,-10,27.4,35.5,10.7,26.9,37.3,11.1,5.73,2.03,8.2,32.1
2015-08-19 00:45:00,0.0,1.93847,0.00094,380.771,0.086,1.6325,0.0031,140.000,44.999,30818.16405,1.97121,388.654,40.880,45.065,45.000,0.00,0.10,-272.71,-272.79,-8,450,-10,27.3,35.4,10.7,26.9,37.2,11.0,5.73,1.87,8.1,32.1
2015-08-19 00:46:00,0.0,1.93965,0.00103,380.777,0.079,1.6298,0.0021,139.997,44.999,30815.44344,1.97247,388.661,40.868,45.065,45.000,0.00,0.10,-272.71,-272.79,-8,450,-10,27.3,35.3,10.6,26.8,37.1,11.0,5.73,1.82,8.2,32.1
2015-08-19 00:47:00,0.0,1.93635,0.00252,380.433,0.161,1.6225,0.0055,139.995,44.999,30815.31570,1.96893,388.267,40.818,45.065,45.000,0.00,0.10,-272.72,-272.79,-8,450,-10,27.3,35.1,10.6,26.9,36.9,10.9,5.73,1.93,8.2,32.0
2015-08-19 00:48:00,0.0,1.93826,0.00329,380.555,0.235,1.6141,0.0020,140.001,44.999,30815.54017,1.97105,388.364,40.766,45.065,45.000,0.00,0.10,-272.72,-272.78,-8,450,-10,27.3,34.9,10.5,26.8,36.7,10.8,5.73,2.02,8.2,32.1
2015-08-19 00:49:00,0.0,1.92945,0.00364,379.725,0.357,1.6092,0.0030,139.999,45.000,30818.26214,1.96209,387.492,40.671,45.065,45.000,0.00,0.10,-272.72,-272.78,-8,450,-10,27.3,34.8,10.4,26.9,36.5,10.8,5.73,2.02,8.2,32.1
2015-08-19 00:50:00,0.0,1.92911,0.00312,379.687,0.296,1.6079,0.0029,140.000,45.000,30824.44450,1.96132,387.439,40.598,45.065,45.000,0.00,0.10,-272.73,-272.79,-8,451,-10,27.4,34.8,10.5,26.9,36.5,10.8,5.73,1.97,8.2,32.1
2015-08-19 00:51:00,0.0,1.93058,0.00260,379.753,0.230,1.6087,0.0024,140.003,45.000,30828.76269,1.96234,387.478,40.515,45.065,45.000,0.00,0.10,-272.72,-272.79,-8,451,-10,27.4,34.7,10.4,26.9,36.4,10.8,5.73,1.94,8.2,32.2
2015-08-19 00:52:00,0.0,1.93365,0.00231,379.949,0.169,1.6051,0.0032,140.001,45.000,30833.49780,1.96609,387.697,40.422,45.065,45.000,0.00,0.10,-272.71,-272.78,-8,451,-10,27.4,34.7,10.4,26.9,36.3,10.7,5.73,1.92,8.2,32.2
2015-08-19 00:53:00,0.0,1.92908,0.00166,379.526,0.071,1.6000,0.0020,139.998,45.000,30839.85122,1.96093,387.228,40.352,45.066,45.001,0.00,0.10,-272.72,-272.78,-8,451,-10,27.4,34.6,10.4,26.9,36.2,10.7,5.73,1.92,8.3,32.2
2015-08-19 00:54:00,0.0,1.93367,0.00072,379.513,0.119,1.6010,0.0016,139.999,45.000,30844.00995,1.96576,387.227,40.295,45.066,45.001,0.00,0.10,-272.72,-272.79,-8,451,-10,27.4,34.6,10.4,26.9,36.2,10.7,5.73,1.93,8.3,32.2
2015-08-19 00:55:00,0.0,1.93435,0.00069,379.419,0.102,1.6065,0.0034,139.999,45.000,30850.21459,1.96651,387.141,40.217,45.066,45.001,0.00,0.10,-272.72,-272.78,-8,451,-10,27.4,34.8,10.5,26.9,36.4,10.7,5.73,1.96,8.3,32.2
2015-08-19 00:56:00,0.0,1.93434,0.00107,379.393,0.101,1.6173,0.0030,139.998,45.000,30853.71052,1.96675,387.182,40.104,45.066,45.001,0.00,0.10,-272.72,-272.78,-9,451,-10,27.4,35.0,10.6,26.9,36.6,10.8,5.73,1.97,8.3,32.1
2015-08-19 00:57:00,0.0,1.93301,0.00181,379.265,0.061,1.6241,0.0023,139.999,45.000,30856.94975,1.96574,387.082,39.978,45.066,45.002,0.00,0.10,-272.72,-272.79,-9,451,-10,27.4,35.1,10.6,26.9,36.8,10.9,5.73,1.94,8.3,32.1
2015-08-19 00:58:00,0.0,1.93330,0.00199,379.018,0.170,1.6300,0.0027,139.999,45.000,30859.33980,1.96624,386.870,39.861,45.067,45.002,0.00,0.10,-272.72,-272.79,-9,451,-10,27.4,35.2,10.7,27.0,36.9,11.0,5.73,1.87,8.3,32.1
2015-08-19 00:59:00,0.0,1.92337,0.00232,378.622,0.249,1.6307,0.0021,139.997,45.000,30862.82106,1.95640,386.475,39.774,45.067,45.003,0.00,0.10,-272.71,-272.78,-8,451,-10,27.4,35.2,10.7,27.0,36.9,11.0,5.73,1.82,8.3,32.1
2015-08-19 01:00:00,0.0,1.92541,0.00238,378.657,0.199,1.6306,0.0037,140.001,45.000,30866.02972,1.95762,386.486,39.674,45.068,45.003,0.00,0.10,-272.71,-272.79,-7,451,-10,27.4,35.2,10.7,27.0,36.9,11.0,5.73,1.84,8.3,32.1
2015-08-19 01:01:00,0.0,1.93014,0.00174,379.127,0.189,1.6156,0.0042,140.000,45.000,30865.91203,1.96230,386.888,39.595,45.068,45.003,0.00,0.10,-272.72,-272.79,-8,452,-10,27.4,34.8,10.5,27.0,36.5,10.8,5.73,1.96,8.3,32.1
2015-08-19 01:02:00,0.0,1.93409,0.00189,379.342,0.097,1.6023,0.0042,139.999,45.000,30866.97527,1.96605,387.045,39.524,45.068,45.003,0.00,0.10,-272.72,-272.78,-9,451,-10,27.4,34.5,10.4,27.0,36.2,10.7,5.73,2.08,8.4,32.1
2015-08-19 01:03:00,0.0,1.93546,0.00178,379.306,0.099,1.5971,0.0021,139.999,45.000,30869.57476,1.96741,386.995,39.470,45.068,45.002,0.00,0.10,-272.72,-272.78,-9,451,-10,27.4,34.4,10.3,27.0,36.1,10.6,5.73,2.06,8.4,32.1
2015-08-19 01:04:00,0.0,1.93779,0.00203,379.088,0.190,1.5957,0.0032,139.999,45.000,30872.93048,1.96970,386.765,39.421,45.068,45.002,0.00,0.10,-272.73,-272.79,-7,451,-10,27.4,34.4,10.3,27.0,36.1,10.6,5.73,1.85,8.4,32.1
2015-08-19 01:05:00,0.0,1.93641,0.00167,379.028,0.263,1.6046,0.0050,140.000,45.000,30875.76200,1.96887,386.735,39.375,45.067,45.002,0.00,0.10,-272.71,-272.78,-8,452,-10,27.4,34.6,10.4,27.0,36.2,10.7,5.73,1.75,8.4,32.1
2015-08-19 01:06:00,0.0,1.93400,0.00069,379.350,0.221,1.6129,0.0022,139.999,45.000,30876.68232,1.96645,387.095,39.338,45.067,45.002,0.00,0.10,-272.71,-272.78,-10,451,-10,27.4,34.7,10.5,27.0,36.4,10.8,5.73,1.95,8.4,32.1
2015-08-19 01:07:00,0.0,1.93466,0.00087,379.301,0.155,1.6070,0.0040,139.999,45.000,30878.94274,1.96679,387.044,39.313,45.066,45.001,0.00,0.10,-272.72,-272.79,-8,451,-10,27.4,34.6,10.4,27.0,36.3,10.7,5.73,2.14,8.4,32.1
2015-08-19 01:08:00,0.0,1.93564,0.00060,379.066,0.323,1.6025,0.0017,139.998,45.000,30880.96672,1.96777,386.782,39.271,45.066,45.001,0.00,0.10,-272.72,-272.78,-7,452,-10,27.4,34.5,10.4,27.0,36.1,10.7,5.73,1.98,8.4,32.1
2015-08-19 01:09:00,0.0,1.93611,0.00049,379.205,0.231,1.6066,0.0018,139.994,45.000,30880.78026,1.96839,386.911,39.250,45.066,45.000,0.00,0.10,-272.71,-272.78,-10,452,-10,27.5,34.6,10.4,27.0,36.2,10.7,5.73,1.72,8.4,32.1
2015-08-19 01:10:00,0.0,1.93638,0.00126,379.356,0.105,1.6092,0.0024,140.001,45.000,30884.22304,1.96868,387.104,39.250,45.066,45.000,0.00,0.10,-272.72,-272.79,-9,451,-10,27.4,34.6,10.4,27.0,36.2,10.7,5.73,1.88,8.4,32.1
2015-08-19 01:11:00,0.0,1.93928,0.00145,380.002,0.304,1.6080,0.0013,139.997,45.000,30884.91437,1.97130,387.725,39.249,45.065,45.000,0.00,0.10,-272.72,-272.79,-7,451,-10,27.4,34.6,10.4,27.0,36.2,10.7,5.73,2.17,8.4,32.2
2015-08-19 01:12:00,0.0,1.94414,0.00182,380.662,0.152,1.6078,0.0023,139.999,45.000,30887.20358,1.97640,388.411,39.241,45.065,45.000,0.00,0.10,-272.72,-272.79,-9,452,-10,27.5,34.6,10.4,27.0,36.2,10.7,5.73,1.99,8.4,32.1
2015-08-19 01:13:00,0.0,1.94737,0.00259,381.093,0.253,1.6051,0.0025,140.000,45.000,30887.28219,1.97946,388.831,39.226,45.065,45.000,0.00,0.10,-272.71,-272.79,-10,451,-10,27.5,34.5,10.4,27.0,36.1,10.7,5.73,1.69,8.4,32.1
2015-08-19 01:14:00,0.0,1.94205,0.00762,380.609,0.738,1.6000,0.0024,139.998,45.000,30886.14230,1.97539,388.386,39.215,45.065,45.000,0.00,0.10,-272.72,-272.79,-7,452,-10,27.5,34.3,10.3,27.0,36.0,10.7,5.73,1.95,8.4,32.2
2015-08-19 01:15:00,0.0,1.93907,0.00618,380.179,0.554,1.5955,0.0028,139.998,45.000,30887.02318,1.97008,387.827,39.189,45.065,45.000,0.00,0.10,-272.72,-272.78,-9,452,-10,27.5,34.2,10.3,27.0,35.8,10.6,5.73,2.19,8.4,32.2
2015-08-19 01:16:00,0.0,1.93416,0.00323,379.741,0.409,1.5943,0.0031,140.002,45.000,30891.21203,1.96731,387.470,39.187,45.065,45.000,0.00,0.10,-272.72,-272.78,-10,451,-10,27.5,34.2,10.3,27.0,35.8,10.6,5.73,1.84,8.4,32.1
2015-08-19 01:17:00,0.0,1.92897,0.00163,379.154,0.193,1.5983,0.0023,139.999,45.000,30891.06064,1.96112,386.847,39.178,45.065,45.000,0.00,0.10,-272.72,-272.79,-7,452,-10,27.5,34.3,10.3,27.1,35.9,10.6,5.73,1.72,8.5,32.1
2015-08-19 01:18:00,0.0,1.92870,0.00075,379.075,0.043,1.5928,0.0032,140.000,45.000,30892.01137,1.96055,386.726,39.147,45.065,45.000,0.00,0.10,-272.72,-272.79,-10,452,-10,27.5,34.2,10.3,27.0,35.8,10.6,5.73,2.15,8.4,32.1
2015-08-19 01:19:00,0.0,1.92869,0.00095,378.988,0.063,1.5882,0.0019,139.995,45.000,30891.32210,1.96051,386.624,39.125,45.065,45.000,0.00,0.10,-272.72,-272.78,-9,451,-10,27.4,34.1,10.2,27.0,35.7,10.5,5.73,2.05,8.5,32.1
2015-08-19 01:20:00,0.0,1.93020,0.00421,378.855,0.095,1.5919,0.0020,139.997,45.000,30891.10267,1.96114,386.493,39.125,45.065,45.000,0.00,0.10,-272.72,-272.79,-7,452,-10,27.5,34.2,10.3,27.0,35.8,10.5,5.73,1.65,8.5,32.1
2015-08-19 01:21:00,0.0,1.94013,0.00412,379.348,0.233,1.5976,0.0050,140.000,45.000,30890.59431,1.97285,387.034,39.115,45.065,45.000,0.00,0.10,-272.72,-272.79,-10,452,-10,27.4,34.4,10.4,27.0,35.9,10.6,5.73,2.02,8.5,32.1
2015-08-19 01:22:00,0.0,1.93306,0.00557,379.016,0.466,1.6162,0.0052,140.000,45.000,30889.07717,1.96468,386.741,39.091,45.065,45.000,0.00,0.10,-272.72,-272.78,-8,451,-10,27.4,34.8,10.5,27.0,36.4,10.8,5.73,2.17,8.5,32.0
2015-08-19 01:23:00,0.0,1.94028,0.00595,379.767,0.496,1.6176,0.0022,139.998,45.000,30888.03912,1.97261,387.550,39.072,45.065,45.000,0.00,0.10,-272.71,-272.78,-8,452,-10,27.4,34.8,10.5,27.0,36.4,10.8,5.73,1.70,8.5,32.1
2015-08-19 01:24:00,0.0,1.94665,0.00578,380.614,0.503,1.6203,0.0032,140.001,44.999,30890.69618,1.97931,388.421,39.065,45.065,45.000,0.00,0.10,-272.72,-272.79,-10,452,-10,27.5,34.8,10.6,27.0,36.5,10.8,5.73,1.88,8.5,32.1
2015-08-19 01:25:00,0.0,1.94955,0.00231,381.190,0.216,1.6154,0.0030,140.000,45.000,30889.43896,1.98232,389.013,39.067,45.065,45.000,0.00,0.10,-272.72,-272.78,-7,451,-10,27.4,34.7,10.5,27.0,36.4,10.8,5.73,2.23,8.5,32.1
2015-08-19 01:26:00,0.0,1.94828,0.00393,380.891,0.311,1.6066,0.0074,140.000,44.999,30887.93317,1.98127,388.683,39.066,45.065,45.000,0.00,0.10,-272.71,-272.78,-9,452,-10,27.5,34.5,10.4,27.0,36.2,10.7,5.73,1.76,8.5,32.1
2015-08-19 01:27:00,0.0,1.93865,0.00240,380.270,0.123,1.5993,0.0037,139.996,45.000,30888.69298,1.97122,387.984,39.066,45.065,45.000,0.00,0.10,-272.72,-272.79,-10,451,-10,27.4,34.4,10.3,27.0,36.0,10.6,5.73,1.79,8.5,32.1
2015-08-19 01:28:00,0.0,1.93363,0.00091,380.125,0.087,1.5835,0.0078,140.003,45.000,30890.36354,1.96551,387.760,39.059,45.065,45.000,0.00,0.10,-272.73,-272.79,-7,452,-10,27.4,33.9,10.1,27.0,35.7,10.5,5.73,2.25,8.5,32.1
2015-08-19 01:29:00,0.0,1.93339,0.00055,379.972,0.082,1.5631,0.0032,140.000,44.999,30889.25045,1.96468,387.497,39.024,45.065,45.000,0.00,0.10,-272.72,-272.77,-10,452,-10,27.4,33.5,9.9,26.9,35.1,10.2,5.73,1.80,8.5,32.0
2015-08-19 01:30:00,0.0,1.94331,0.00186,381.009,0.269,1.5730,0.0086,139.999,45.000,30886.98373,1.97451,388.564,39.000,45.065,45.000,0.00,0.10,-272.72,-272.79,-8,451,-10,27.4,33.9,10.1,26.9,35.3,10.3,5.73,1.77,8.5,32.1
2015-08-19 01:31:00,0.0,1.94105,0.00100,381.261,0.135,1.5728,0.0039,140.000,45.000,30886.96486,1.97267,388.852,38.994,45.065,45.000,0.00,0.10,-272.73,-272.79,-8,452,-10,27.4,33.8,10.0,27.0,35.4,10.4,5.73,2.25,8.5,32.1
2015-08-19 01:32:00,0.0,1.94153,0.00152,381.246,0.264,1.5565,0.0067,140.001,45.000,30885.77064,1.97293,388.770,38.958,45.065,45.000,0.00,0.10,-272.72,-272.78,-10,451,-10,27.4,33.4,9.9,27.0,35.0,10.2,5.73,1.80,8.5,32.1
2015-08-19 01:33:00,0.0,1.94161,0.00125,381.411,0.150,1.5503,0.0036,139.997,45.000,30885.99100,1.97257,388.881,38.938,45.065,45.000,0.00,0.10,-272.71,-272.79,-7,451,-10,27.4,33.3,9.8,26.9,34.8,10.1,5.73,1.76,8.5,32.0
2015-08-19 01:34:00,0.0,1.94552,0.00170,381.851,0.178,1.5427,0.0040,139.998,45.000,30884.08302,1.97642,389.299,38.931,45.066,45.000,0.00,0.10,-272.73,-272.79,-10,452,-10,27.4,33.1,9.7,26.9,34.7,10.0,5.73,2.27,8.5,32.0
2015-08-19 01:35:00,0.0,1.94860,0.00091,382.348,0.105,1.5397,0.0017,140.002,45.000,30885.16925,1.97956,389.786,38.929,45.065,45.000,0.00,0.10,-272.72,-272.78,-8,451,-10,27.4,33.1,9.7,26.9,34.6,10.0,5.73,1.75,8.6,32.0
2015-08-19 01:36:00,0.0,1.94852,0.00183,382.487,0.172,1.5352,0.0037,139.998,45.000,30884.49720,1.97935,389.908,38.920,45.065,45.000,0.00,0.10,-272.71,-272.78,-8,452,-10,27.4,33.0,9.6,26.9,34.6,9.9,5.73,1.83,8.5,32.0
2015-08-19 01:37:00,0.0,1.95159,0.00255,382.499,0.248,1.5296,0.0022,139.998,45.000,30884.18833,1.98283,389.926,38.894,45.065,45.000,0.00,0.10,-272.73,-272.79,-10,451,-10,27.3,32.9,9.6,26.9,34.4,9.9,5.73,2.26,8.6,32.0
2015-08-19 01:38:00,0.0,1.93875,0.00592,381.246,0.441,1.5398,0.0065,139.996,45.000,30881.69043,1.97032,388.695,38.874,45.065,45.000,0.00,0.10,-272.72,-272.79,-7,451,-10,27.3,33.2,9.7,26.8,34.7,9.9,5.73,1.67,8.5,32.0
2015-08-19 01:39:00,0.0,1.93545,0.00166,381.077,0.150,1.5521,0.0048,139.996,45.000,30882.05944,1.96631,388.562,38.874,45.065,45.000,0.00,0.10,-272.71,-272.79,-11,452,-10,27.3,33.4,9.8,26.8,35.0,10.1,5.73,1.93,8.5,31.9
2015-08-19 01:40:00,0.0,1.94091,0.00166,381.573,0.234,1.5328,0.0025,140.000,45.000,30881.06670,1.97140,388.953,38.852,45.065,45.000,0.00,0.10,-272.72,-272.79,-7,451,-10,27.3,33.0,9.6,26.8,34.6,9.9,5.73,2.21,8.5,31.8
2015-08-19 01:41:00,0.0,1.94670,0.00137,382.503,0.225,1.5333,0.0026,140.000,45.000,30880.21219,1.97731,389.900,38.817,45.065,45.000,0.00,0.10,-272.72,-272.79,-9,452,-10,27.3,33.0,9.6,26.8,34.6,9.9,5.73,1.61,8.5,31.7
2015-08-19 01:42:00,0.0,1.94993,0.00152,382.924,0.192,1.5206,0.0048,139.998,45.000,30878.21674,1.98029,390.274,38.815,45.066,45.000,0.00,0.10,-272.72,-272.79,-9,451,-10,27.3,32.7,9.5,26.8,34.3,9.8,5.73,2.08,8.5,31.8
2015-08-19 01:43:00,0.0,1.95436,0.00072,383.264,0.202,1.5143,0.0020,139.999,45.000,30878.18257,1.98490,390.601,38.825,45.066,45.000,0.00,0.10,-272.72,-272.78,-7,451,-10,27.3,32.6,9.4,26.8,34.2,9.7,5.73,2.10,8.5,31.8
2015-08-19 01:44:00,0.0,1.95599,0.00073,383.367,0.176,1.5182,0.0033,139.997,45.000,30877.35036,1.98667,390.723,38.826,45.065,45.000,0.00,0.10,-272.72,-272.79,-10,451,-10,27.3,32.7,9.5,26.8,34.3,9.7,5.73,1.61,8.5,31.7
2015-08-19 01:45:00,0.0,1.95567,0.00094,383.351,0.191,1.5195,0.0025,139.998,45.000,30880.12967,1.98657,390.722,38.833,45.066,45.000,0.00,0.10,-272.73,-272.79,-7,451,-10,27.3,32.8,9.5,26.8,34.4,9.8,5.73,2.18,8.5,31.8
2015-08-19 01:46:00,0.0,1.95407,0.00060,383.196,0.158,1.5190,0.0016,139.998,45.000,30877.17458,1.98466,390.570,38.873,45.065,45.000,0.00,0.10,-272.72,-272.78,-9,451,-10,27.2,32.9,9.5,26.8,34.4,9.8,5.73,2.01,8.5,31.8